This demonstration page uses our WeatherBlox Daily Observations layout. Learn more.

Left ArrowRight Arrow

39.08367, -84.50855

Hourly Observations for May 1, 2019

Temp ( °F °C ) Dew Point ( °F °C ) Humidity (%) Winds ( mph kmh ) Pressure ( in mb ) Visibility ( mi km ) Precip ( " mm )
12:07 am 00:07 Clear with Mist and Fog 60 15.6 59 15 96 96 Calm 30.05 1017 1.75 2.816345 0 0
12:42 am 00:42 Clear with Fog 59 15 58 14.4 96 96 Calm 30.06 1018 0.5 0.80467 0 0
12:49 am 00:49 Clear with Mist and Fog 59 15 57 14 94 94 Calm 30.06 1018 2 3.21868 0 0
12:53 am 00:53 Clear with Mist and Fog 60 15.6 59 15 96 96 Calm 30.05 1018 4 6.43736 0 0
1:12 am 01:12 Clear with Mist and Fog 59 15 58 14.4 96 96 Calm 30.06 1018 1.25 2.011675 0 0
1:17 am 01:17 Clear with Fog 59 15 58 14.4 96 96 Calm 30.06 1018 0.25 0.402335 0 0
1:25 am 01:25 Mostly Cloudy with Fog 59 15 58 14.4 96 96 Calm 30.06 1018 0.5 0.80467 0 0
1:34 am 01:34 Clear with Mist and Fog 58 14.4 58 14.4 100 100 Calm 30.06 1018 2 3.21868 0 0
1:38 am 01:38 Mostly Clear with Mist and Fog 58 14.4 57 13.9 97 97 Calm 30.06 1018 2 3.21868 0 0
1:40 am 01:40 Mostly Cloudy with Mist and Fog 58 14.4 57 13.9 97 97 Calm 30.06 1018 1 1.60934 0 0
1:47 am 01:47 Mostly Cloudy with Fog 57 14 57 14 100 100 Calm 30.05 1018 0.25 0.402335 0 0
1:53 am 01:53 Mostly Cloudy with Fog 58 14.4 57 13.9 97 97 Calm 30.05 1018 0.25 0.402335 0 0
2:07 am 02:07 Mostly Cloudy with Mist and Fog 58 14.4 57 13.9 97 97 Calm 30.06 1018 0.75 1.207005 0 0
2:19 am 02:19 Mostly Cloudy with Fog 57 13.9 57 13.9 100 100 Calm 30.06 1018 0.5 0.80467 0 0
2:33 am 02:33 Mostly Cloudy with Fog 57 13.9 56 13.3 96 96 Calm 30.05 1018 0.25 0.402335 0 0
2:42 am 02:42 Mostly Cloudy with Mist and Fog 58 14.4 57 13.9 97 97 Calm 30.05 1018 1 1.60934 0 0
2:45 am 02:45 Mostly Clear with Mist and Fog 58 14.4 56 13.3 93 93 Calm 30.05 1018 2.5 4.02335 0 0
2:53 am 02:53 Partly Cloudy with Mist and Fog 58 14.4 57 13.9 97 97 Calm 30.04 1017 1.25 2.011675 0 0
3:00 am 03:00 Mostly Cloudy with Fog 57 13.9 56 13.3 96 96 Calm 30.05 1018 0.5 0.80467 0 0
3:25 am 03:25 Clear with Fog 56 13.3 56 13.3 100 100 Calm 30.05 1018 0.5 0.80467 0 0
3:40 am 03:40 Mostly Cloudy with Mist and Fog 56 13.3 55 12.8 97 97 Calm 30.05 1018 0.75 1.207005 0 0
3:53 am 03:53 Clear with Mist and Fog 57 13.9 56 13.3 96 96 Calm 30.04 1017 1 1.60934 0 0
4:06 am 04:06 Clear with Fog 56 13.3 56 13.3 100 100 Calm 30.04 1017 0.5 0.80467 0 0
4:53 am 04:53 Clear with Mist and Fog 57 13.9 56 13.3 96 96 Calm 30.03 1017 1 1.60934 0 0
5:01 am 05:01 Clear with Fog 56 13.3 55 12.8 97 97 Calm 30.03 1017 0.5 0.80467 0 0
5:13 am 05:13 Clear with Mist and Fog 57 13.9 56 13.3 96 96 Calm 30.03 1017 2.5 4.02335 0 0
5:20 am 05:20 Clear with Mist and Fog 56 13.3 55 12.8 97 97 Calm 30.03 1017 3 4.82802 0 0
5:53 am 05:53 Clear with Mist and Fog 57 13.9 56 13.3 96 96 Calm 30.02 1017 4 6.43736 0 0
6:53 am 06:53 Sunny 57 13.9 55 12.8 93 93 Calm 30.04 1017 10 16.0934 0 0
7:53 am 07:53 Sunny 60 15.6 58 14.4 93 93 SW 3 6 30.06 1018 9 14.48406 0 0
8:53 am 08:53 Sunny 71 21.7 63 17.2 76 76 SSW 10 17 30.06 1018 10 16.0934 0 0
9:53 am 09:53 Sunny 75 23.9 63 17.2 66 66 S 13 20 30.05 1018 10 16.0934 0 0
10:53 am 10:53 Sunny 77 25 62 16.7 60 60 SSW 17 28 30.05 1018 10 16.0934 0 0
11:53 am 11:53 Sunny 79 26.1 61 16.1 54 54 SSW 25 41 30.03 1017 10 16.0934 0 0
12:53 pm 12:53 Partly Cloudy 79 26.1 61 16.1 54 54 SSW 30 48 30.03 1017 10 16.0934 0 0
1:53 pm 13:53 Partly Cloudy 79 26.1 59 15 50 50 SSW 23 37 30.04 1017 10 16.0934 0 0
2:53 pm 14:53 Mostly Sunny 79 26.1 60 15.6 52 52 SSW 21 33 30.05 1018 10 16.0934 0 0
3:53 pm 15:53 Sunny 80 26.7 59 15 49 49 SSW 22 35 30.03 1017 10 16.0934 0 0
4:53 pm 16:53 Sunny 80 26.7 58 14.4 47 47 SSW 20 31 30.01 1016 10 16.0934 0 0
5:53 pm 17:53 Sunny 80 26.7 59 15 49 49 SSW 20 31 30.01 1016 10 16.0934 0 0
6:53 pm 18:53 Mostly Cloudy with Nearby Thunderstorms 77 25 59 15 54 54 SW 10 17 30.02 1017 10 16.0934 0 0
7:18 pm 19:18 Cloudy 77 25 59 15 54 54 SW 7 11 30.01 1016 10 16.0934 0 0
7:53 pm 19:53 Cloudy with Nearby Thunderstorms 69 20.6 63 17.2 81 81 WSW 18 30 30.09 1019 2.5 4.02335 0.11 2.794
7:57 pm 19:57 Cloudy with Heavy Thunderstorms 68 20 64 17.8 87 87 W 12 19 30.08 1019 2 3.21868 0.04 1.016
8:09 pm 20:09 Cloudy with Light Thunderstorms 67 19.4 64 17.8 91 91 W 6 9 30.08 1019 7 11.26538 0.05 1.27
8:22 pm 20:22 Cloudy with Nearby Thunderstorms 67 19.4 64 17.8 91 91 ENE 5 7 30.07 1018 7 11.26538 0.06 1.524
8:34 pm 20:34 Cloudy 67 19.4 64 17.8 91 91 NNE 3 6 30.07 1018 10 16.0934 0.07 1.778
8:53 pm 20:53 Mostly Cloudy 67 19.4 64 17.8 91 91 Calm 30.07 1018 10 16.0934 0.07 1.778
9:11 pm 21:11 Cloudy with Heavy Rain 67 19.4 64 17.8 91 91 SW 5 7 30.09 1019 1.5 2.41401 0.09 2.286
9:20 pm 21:20 Cloudy with Light Rain 67 19.4 64 17.8 91 91 VRB 3 6 30.09 1019 3 4.82802 0.09 2.286
9:53 pm 21:53 Cloudy with Rain 66 18.9 64 17.8 93 93 Calm 30.08 1019 7 11.26538 0.12 3.048
10:53 pm 22:53 Cloudy with Light Rain 65 18.3 64 17.8 97 97 Calm 30.08 1019 6 9.65604 0.05 1.27
11:37 pm 23:37 Mostly Cloudy with Light Rain 66 18.9 64 17.8 93 93 WNW 9 15 30.1 1019 9 14.48406 0 0.0254
11:53 pm 23:53 Cloudy with Light Rain 66 18.9 64 17.8 93 93 SSW 3 6 30.1 1019 9 14.48406 0.01 0.254

Powered by AerisWeather